一网星座-0083星 (ONEWEB-0083 )

导读 | 豆包AI

ONEWEB-0083是英国OneWeb公司低轨宽带星座中的一颗卫星,于2020年3月21日发射入轨。OneWeb通过构建近地轨道卫星星座,目标是为全球各地提供高速互联网接入服务,尤其为偏远地区、海上和航空等场景补充网络覆盖。 该卫星属于OneWeb第一代部署批次,这类卫星共同组成卫星通信网络,通过星间链路和地面网关实现全球信号覆盖,是全球低轨巨型通信星座建设进程中的组成单元,推动了天基互联网基础设施的发展。

基本信息
目录编号:
45435
目录名称:
ONEWEB-0083
国际标识:
2020-020M
轨道中心:
EARTH
卫星名称:
一网星座-0083星
卫星全名:
一网星座-0083星 (ONEWEB-0083 )
卫星状态:
在轨 (已飞行2184 天)
发射日期:
2020-03-21 UTC
国别 :
英国 (GB)
星等 :
--
轨道信息
数据来源 国际轨道数据 AOE轨道数据
星历时间 2026-03-13T17:06:59+0800
17小时前
查看轨道信息
2026-03-11T09:00:00+0800
3天前
查看轨道信息
半长轴 7595.831km 7595.814km
偏心率 0.0001918 0.0002176
轨道倾角 87.887° 87.888°
近地点辐角 84.229° 92.693°
升交点赤经 40.102° 40.567°
平近点角 275.906° 34.969°
近地点 1216.237km 1216.024km
远地点 1219.151km 1219.33km
周期 109.805分钟 109.805分钟
每日圈数 13.114141 13.114185
详细信息
平衡模式:
三轴稳定
覆盖范围:
全球
运营商:
一网卫星公司
运营商所在国:
英国
制造商(研发单位):
一网卫星公司
制造商所在国:
英国
使用方式:
暂无
卫星简介
OneWeb卫星网络由648颗重约125公斤的微型卫星组成,运行在1200公里的轨道上。 每颗卫星都能够提供至少每秒8千兆位的吞吐量,以使用其高吞吐量的Ku频段有效载荷为家庭和移动平台提供互联网接入。该卫星仍在工作。
2D轨道图
3D轨道图
轨道高度分析图
轨道倾角分析图
轨道综合分析图
查看轨道综合分析图